When you browse on this site, cookies collect data to enhance your experience and personalize the content and advertising you see.
Visit our Privacy Policy to learn more. By continuing to use the site, you agree to this use of cookies and data.
  • In Austria
  • List of Countries
  • For 7 days
  • Water Temperature
  • Weather Map
  • News
  • Weather Widgets
  • user-avatar
    Login

    Hourly Weather Viseu

    Today, 5 April, Sunday

    Time Temperature Precipitation Wind Pressure Humidity
    00:00 +10°C° 0.1 mm 2 mps 717 mmHg 86%
    01:00 +10°C° 0.1 mm 2 mps 717 mmHg 88%
    02:00 +11°C° 0.1 mm 1 mps 717 mmHg 90%
    03:00 +10°C° 0.2 mm 2 mps 717 mmHg 91%
    04:00 +10°C° 0.2 mm 2 mps 717 mmHg 92%
    05:00 +10°C° 0 mm 2 mps 717 mmHg 92%
    06:00 +12°C° 0.1 mm 2 mps 717 mmHg 90%
    07:00 +13°C° 0.1 mm 2 mps 717 mmHg 87%
    08:00 +12°C° 0.1 mm 3 mps 718 mmHg 84%
    09:00 +13°C° 0.1 mm 3 mps 718 mmHg 81%
    10:00 +14°C° 0.1 mm 4 mps 718 mmHg 78%
    11:00 +15°C° 0.1 mm 5 mps 718 mmHg 76%
    12:00 +14°C° 3.1 mm 4 mps 717 mmHg 82%
    13:00 +13°C° 3.1 mm 3 mps 717 mmHg 89%
    14:00 +13°C° 3.1 mm 2 mps 717 mmHg 95%
    15:00 +13°C° 5.2 mm 2 mps 717 mmHg 96%
    16:00 +13°C° 5.2 mm 1 mps 717 mmHg 96%
    17:00 +13°C° 5.2 mm 1 mps 718 mmHg 97%
    18:00 +13°C° 0.3 mm 1 mps 718 mmHg 97%
    19:00 +13°C° 0.3 mm 1 mps 719 mmHg 97%
    20:00 +12°C° 0.3 mm 1 mps 720 mmHg 98%
    21:00 +12°C° 0 mm 1 mps 720 mmHg 98%
    22:00 +11°C° 0 mm 1 mps 720 mmHg 98%
    23:00 +11°C° 0 mm 1 mps 720 mmHg 98%

    Tomorrow, 6 April, Monday

    Time Temperature Precipitation Wind Pressure Humidity
    00:00 +10°C° 0 mm 0 mps 720 mmHg 98%
    01:00 +10°C° 0 mm 0 mps 720 mmHg 98%
    02:00 +10°C° 0 mm 0 mps 721 mmHg 97%
    03:00 +10°C° 0 mm 0 mps 721 mmHg 97%
    04:00 +10°C° 0 mm 0 mps 721 mmHg 96%
    05:00 +10°C° 0 mm 0 mps 721 mmHg 95%
    06:00 +11°C° 0 mm 0 mps 722 mmHg 91%
    07:00 +12°C° 0 mm 0 mps 722 mmHg 87%
    08:00 +13°C° 0 mm 0 mps 723 mmHg 82%
    09:00 +15°C° 0 mm 1 mps 723 mmHg 73%
    10:00 +18°C° 0 mm 1 mps 724 mmHg 63%
    11:00 +19°C° 0 mm 1 mps 724 mmHg 54%
    12:00 +18°C° 0.1 mm 2 mps 724 mmHg 55%
    13:00 +18°C° 0.1 mm 2 mps 724 mmHg 57%
    14:00 +18°C° 0.1 mm 2 mps 724 mmHg 58%
    15:00 +17°C° 0.1 mm 2 mps 723 mmHg 65%
    16:00 +16°C° 0.1 mm 2 mps 723 mmHg 72%
    17:00 +15°C° 0.1 mm 1 mps 723 mmHg 79%
    18:00 +14°C° 0 mm 1 mps 723 mmHg 82%
    19:00 +13°C° 0 mm 1 mps 724 mmHg 86%
    20:00 +11°C° 0 mm 0 mps 724 mmHg 89%
    21:00 +11°C° 0 mm 1 mps 724 mmHg 89%
    22:00 +11°C° 0 mm 1 mps 724 mmHg 89%
    23:00 +11°C° 0 mm 1 mps 724 mmHg 89%

    Day after tomorrow, 7 April, Tuesday

    Time Temperature Precipitation Wind Pressure Humidity
    00:00 +11°C° 0 mm 1 mps 724 mmHg 88%
    01:00 +11°C° 0 mm 1 mps 724 mmHg 87%
    02:00 +11°C° 0 mm 1 mps 724 mmHg 86%
    03:00 +11°C° 0 mm 1 mps 724 mmHg 86%
    04:00 +10°C° 0 mm 1 mps 724 mmHg 86%
    05:00 +10°C° 0 mm 1 mps 724 mmHg 86%
    06:00 +12°C° 0 mm 1 mps 724 mmHg 81%
    07:00 +14°C° 0 mm 1 mps 725 mmHg 76%
    08:00 +16°C° 0 mm 1 mps 725 mmHg 71%
    09:00 +18°C° 0 mm 1 mps 725 mmHg 69%
    10:00 +19°C° 0 mm 1 mps 725 mmHg 67%
    11:00 +20°C° 0 mm 1 mps 725 mmHg 65%
    12:00 +20°C° 0.2 mm 1 mps 725 mmHg 64%
    13:00 +20°C° 0.2 mm 2 mps 725 mmHg 64%
    14:00 +20°C° 0.2 mm 2 mps 725 mmHg 63%
    15:00 +19°C° 0.2 mm 2 mps 724 mmHg 69%
    16:00 +18°C° 0.2 mm 2 mps 724 mmHg 75%
    17:00 +19°C° 0.2 mm 1 mps 724 mmHg 81%
    18:00 +16°C° 0 mm 1 mps 724 mmHg 85%
    19:00 +15°C° 0 mm 1 mps 725 mmHg 89%
    20:00 +12°C° 0 mm 0 mps 725 mmHg 94%
    21:00 +12°C° 0 mm 0 mps 725 mmHg 94%
    22:00 +12°C° 0 mm 0 mps 725 mmHg 94%
    23:00 +11°C° 0 mm 0 mps 725 mmHg 94%

    8 April, Wednesday

    Time Temperature Precipitation Wind Pressure Humidity
    00:00 +13°C° 0 mm 1 mps 725 mmHg 94%
    01:00 +13°C° 0 mm 1 mps 724 mmHg 93%
    02:00 +13°C° 0 mm 1 mps 724 mmHg 93%
    03:00 +13°C° 0 mm 1 mps 724 mmHg 93%
    04:00 +13°C° 0 mm 1 mps 724 mmHg 92%
    05:00 +12°C° 0 mm 1 mps 724 mmHg 92%
    06:00 +14°C° 0 mm 1 mps 724 mmHg 87%
    07:00 +16°C° 0 mm 1 mps 724 mmHg 81%
    08:00 +18°C° 0 mm 1 mps 724 mmHg 76%
    09:00 +19°C° 0 mm 1 mps 725 mmHg 70%
    10:00 +20°C° 0 mm 1 mps 725 mmHg 65%
    11:00 +21°C° 0 mm 1 mps 725 mmHg 59%
    12:00 +20°C° 0.1 mm 2 mps 724 mmHg 63%
    13:00 +19°C° 0.1 mm 2 mps 724 mmHg 68%
    14:00 +19°C° 0.1 mm 2 mps 724 mmHg 72%
    15:00 +18°C° 0.4 mm 2 mps 724 mmHg 80%
    16:00 +16°C° 0.4 mm 1 mps 724 mmHg 88%
    17:00 +15°C° 0.4 mm 1 mps 723 mmHg 96%
    18:00 +15°C° 0.5 mm 1 mps 724 mmHg 97%
    19:00 +13°C° 0.5 mm 0 mps 724 mmHg 97%
    20:00 +13°C° 0.5 mm 0 mps 724 mmHg 97%
    21:00 +13°C° 0.1 mm 0 mps 724 mmHg 97%
    22:00 +13°C° 0.1 mm 0 mps 724 mmHg 96%
    23:00 +13°C° 0.1 mm 0 mps 724 mmHg 95%

    9 April, Thursday

    Time Temperature Precipitation Wind Pressure Humidity
    00:00 +13°C° 0 mm 0 mps 723 mmHg 95%
    01:00 +13°C° 0 mm 0 mps 723 mmHg 94%
    02:00 +13°C° 0 mm 0 mps 723 mmHg 94%
    03:00 +12°C° 0 mm 0 mps 723 mmHg 94%
    04:00 +12°C° 0 mm 0 mps 723 mmHg 94%
    05:00 +12°C° 0 mm 0 mps 723 mmHg 94%
    06:00 +13°C° 0.1 mm 0 mps 723 mmHg 93%
    07:00 +13°C° 0.1 mm 0 mps 723 mmHg 93%
    08:00 +13°C° 0.1 mm 0 mps 723 mmHg 93%
    09:00 +14°C° 0.2 mm 0 mps 723 mmHg 93%
    10:00 +14°C° 0.2 mm 0 mps 723 mmHg 93%
    11:00 +14°C° 0.2 mm 0 mps 724 mmHg 93%
    12:00 +14°C° 0.5 mm 0 mps 724 mmHg 94%
    13:00 +14°C° 0.5 mm 0 mps 723 mmHg 95%
    14:00 +14°C° 0.5 mm 0 mps 723 mmHg 96%
    15:00 +13°C° 0.1 mm 0 mps 723 mmHg 96%
    16:00 +13°C° 0.1 mm 0 mps 723 mmHg 96%
    17:00 +13°C° 0.1 mm 0 mps 723 mmHg 96%
    18:00 +13°C° 0 mm 0 mps 723 mmHg 97%
    19:00 +12°C° 0 mm 0 mps 723 mmHg 97%
    20:00 +12°C° 0 mm 0 mps 724 mmHg 97%
    21:00 +12°C° 0 mm 0 mps 724 mmHg 97%
    22:00 +12°C° 0 mm 0 mps 724 mmHg 97%
    23:00 +12°C° 0 mm 0 mps 724 mmHg 97%

    10 April, Friday

    Time Temperature Precipitation Wind Pressure Humidity
    00:00 +12°C° 0 mm 0 mps 724 mmHg 96%
    01:00 +11°C° 0 mm 0 mps 723 mmHg 96%
    02:00 +11°C° 0 mm 0 mps 723 mmHg 96%
    03:00 +11°C° 0 mm 0 mps 723 mmHg 96%
    04:00 +11°C° 0 mm 0 mps 723 mmHg 96%
    05:00 +11°C° 0 mm 0 mps 723 mmHg 96%
    06:00 +12°C° 0 mm 0 mps 724 mmHg 91%
    07:00 +14°C° 0 mm 0 mps 724 mmHg 87%
    08:00 +15°C° 0 mm 0 mps 724 mmHg 83%
    09:00 +16°C° 0 mm 0 mps 724 mmHg 77%
    10:00 +18°C° 0 mm 0 mps 724 mmHg 72%
    11:00 +21°C° 0 mm 1 mps 724 mmHg 66%
    12:00 +21°C° 0.2 mm 1 mps 724 mmHg 66%
    13:00 +21°C° 0.2 mm 1 mps 723 mmHg 66%
    14:00 +20°C° 0.2 mm 2 mps 723 mmHg 66%
    15:00 +19°C° 0.1 mm 2 mps 723 mmHg 71%
    16:00 +18°C° 0.1 mm 2 mps 723 mmHg 76%
    17:00 +18°C° 0.1 mm 2 mps 722 mmHg 81%
    18:00 +16°C° 0 mm 1 mps 722 mmHg 86%
    19:00 +14°C° 0 mm 1 mps 722 mmHg 90%
    20:00 +12°C° 0 mm 0 mps 723 mmHg 95%
    21:00 +12°C° 0 mm 0 mps 723 mmHg 95%
    22:00 +11°C° 0 mm 0 mps 722 mmHg 95%
    23:00 +11°C° 0 mm 0 mps 722 mmHg 96%
    Show more